Location: USNO
(38.9242°N, 77.0663°W)
Time: 13:54:11
(UTC-05:00)

Envisat - Pass Details

Date: 12 October 2017
Orbit: 764 x 766 km, 98.2° (Epoch: 16 December)

Event Time Altitude Azimuth Distance (km) Brightness Sun altitude
Exits shadow 21:34:01 31° 309° (NW) 1,323 4.6 -35.4°
Drops below altitude 10° 21:37:01 10° 333° (NNW) 2,311 6.0 -35.9°
Sets 21:39:26 0° 340° (NNW) 3,242 6.7 -36.4°
